Back to catalog

AYAME 2 DEB

AliveHEO
NORAD 38684·DEBRIS·🇯🇵 Japan

Launched Feb 22, 1980 from Tanegashima Space Center

Loading…

Next Passes (next 24 hours)

TLE

FreshSource: Space-Track

Epoch: Sep 13, 2026, 17:30 UTC

1 38684U 80018E   26256.72961516 -.00000133  00000-0  00000-0 0  9992
2 38684  10.0701 338.9525 4482674  59.0731 337.3113  1.77316338 28397

Track AYAME 2 DEB in real time with AllMySat

Download on the App Store